Dean International
Flight School

Career Spotlight

Mika

Mika

Congratulations to Mika from Khazakstan. She recently sent us this photo of her flying an Airbus airliner.

More...
Mika's Success Story
close

Congratulations to Mika from Khazakstan. She recently sent us this photo of her flying an Airbus airliner.

Mario

Mario

My dreams could not have been realized if I wouldn't have been part of the Dean International family.

More...
Mario's Success Story
close

"My dreams could not have been realized if I wouldn't have been part of the Dean International family. Thank you Robert, thanks to all my co-workers, and thanks to all of my students!"

Fernando

Fernando

I am now working as a First Officer at TACA and am enjoying every moment of it.

More...
Fernando's Success Story
close

"Will never forget my time of flight training at Dean International. I am now working as a First Officer at TACA and am enjoying every moment of it."

Alvaro

Alvaro

Because of the flight time I was able to built while instructing, I got the experience needed to apply to an airline in Colombia.

More...
Alvaro's Success Story
close

Dean alumnus Alvaro Londoño currently flies with Tampa Cargo. He says of his experience at Dean: "I want to take this opportunity to thank you for giving me the chance to build my experience and expand my knowledge in Dean International. Because of the flight time I was able to built flight instructing, I got the experience needed to apply to an airline in Colombia."

Ralph

Ralph

Every Aruban student of Dean International has made it into Tiara Air Aruba, that is very nice.

More...
Ralph's Success Story
close

"Next to me is my Co-Pilot, Elison. This picture was taken on our first flight together, which was almost exactly 5 years after I finished at Dean International. [...] Every Aruban student of Dean International has made it into Tiara Air Aruba. [...] The future looks bright here in Aruba."

Rohaan

Rohaan

The [..] staff will all work diligently to help you finish your certificates as safely and efficiently as possible.

More...
Rohaan's Success Story
close

After receiving very hard times from other flight schools [...], I came to Dean International where Robert Dean personally sat down with me and gave me a financial and chronological look into how much remained to finish my private pilot certificate. Through his hard efforts as an instructor and mentor, I was able to finish my private pilot certificate within one week.

Welcome to Dean International

In over two decades, Dean International has educated over 7,000 pilots from all over the world, including over 1,000 students from India alone. By offering a great training experience, a friendly service staff, an ample variety of aircraft, and by improving constantly, we have become one of the largest, most prestigious FAA 141-approved flight schools in North America. Located in Miami, Florida, USA, our flight school offers an ideal location for year-round, "learn to fly" weather, flight training. Dean International is not only well-equipped to provide services to professional trainees but also caters to General Aviation renters. Visit or contact our headquarters at Kendall-Tamiami Executive Airport located in Miami, FL today to learn more about us, or simply read more about our programs if you are an international student interested in joining our school.

Local Airport Information
TAF FOR KTMB (Issued: Sun, June 26th 2016 3:57 PM UTC)
TAF
      AMD KTMB 261455Z 2615/2712 13005KT P6SM VCSH SCT030 SCT250
      FM270100 VRB02KT P6SM FEW030
     
METAR FOR KTMB (Issued: Sun, June 26th 2016 4:53 PM UTC):
KTMB 261653Z 09009KT 10SM CLR 32/22 A3009 RMK AO2 SLP187 T03220222

This weather information is provided by the National Weather Service.
It is automatically refreshed every three minutes.
TAF FOR KHST (Issued: Sun, June 26th 2016 4:07 PM UTC)
TAF KHST 261600Z 2616/2722 08006KT 9999 FEW032 QNH3007INS
      BECMG 2620/2621 15008KT 9999 VCSH FEW025 SCT040 QNH3003INS
      TEMPO 2621/2701 9000 -TSRA BKN030CB
      BECMG 2700/2701 12006KT 9999 NSW SCT028 QNH3003INS
      BECMG 2717/2718 15004KT 9000 -SHRA VCTS SCT050CB BKN120 QNH3002INS TX33/2621Z TN24/2712Z
     
METAR FOR KHST (Issued: Sun, June 26th 2016 4:58 PM UTC):
KHST 261658Z AUTO 09010KT 10SM FEW150 SCT180 BKN210 32/23 A3009 RMK AO2 SLP193 P0000 T03180227

This weather information is provided by the National Weather Service.
It is automatically refreshed every three minutes.
TAF FOR KOPF (Issued: Sun, June 26th 2016 3:57 PM UTC)
TAF
      AMD KOPF 261455Z 2615/2712 13007KT P6SM VCSH SCT025 SCT060
      FM270100 VRB03KT P6SM FEW030
     
METAR FOR KOPF (Issued: Sun, June 26th 2016 4:53 PM UTC):
KOPF 261653Z 12011G17KT 10SM FEW043 32/22 A3009 RMK AO2 SLP190 T03220217

This weather information is provided by the National Weather Service.
It is automatically refreshed every three minutes.
TAF FOR KMIA (Issued: Sun, June 26th 2016 3:57 PM UTC)
TAF
      AMD KMIA 261453Z 2615/2712 VRB05KT P6SM VCSH SCT030 SCT250
      FM270100 VRB03KT P6SM FEW030
     
METAR FOR KMIA (Issued: Sun, June 26th 2016 4:53 PM UTC):
KMIA 261653Z 11008KT 10SM CLR 32/22 A3009 RMK AO2 SLP188 T03220217

This weather information is provided by the National Weather Service.
It is automatically refreshed every three minutes.
Design by Ariel Llizo
© Dean International Inc. 2012